Location: Aalen
(48.8330°N, 10.1000°E)
Time: 07:32:30
(UTC+02:00)

Envisat - Visible Passes

Search period start: 16 October 2019 00:00
Search period end: 26 October 2019 00:00
Orbit: 764 x 766 km, 98.1° (Epoch: 15 October)

Date Brightness Start Highest point End Pass type
(mag) Time Alt. Az. Time Alt. Az. Time Alt. Az.
16 Oct 5.2 20:21:09 10° SSW 20:25:23 26° W 20:29:40 10° NW visible
17 Oct 6.5 06:48:10 10° ENE 06:50:04 12° E 06:51:57 10° ESE visible
17 Oct 3.9 19:43:25 10° S 19:48:22 53° W 19:53:23 10° NNW visible
18 Oct 3.0 19:06:30 10° SSE 19:11:34 77° ENE 19:16:40 10° NNW visible
18 Oct 5.9 20:48:05 10° SW 20:51:12 16° W 20:54:19 10° NW visible
19 Oct 6.0 07:12:12 10° NE 07:15:55 20° E 07:19:38 10° SE visible
19 Oct 4.8 20:09:30 10° SSW 20:14:02 32° W 20:18:36 10° NNW visible
20 Oct 3.5 19:32:02 10° S 19:37:05 66° WSW 19:42:10 10° NNW visible
21 Oct 3.0 18:55:19 10° SSE 19:00:19 63° ENE 19:05:22 10° N visible
21 Oct 5.6 20:36:07 10° SW 20:39:47 20° W 20:43:29 10° NW visible
22 Oct 6.1 07:01:22 10° NE 07:04:31 16° E 07:07:40 10° SE visible
22 Oct 4.4 19:57:56 10° SSW 20:02:41 40° W 20:07:29 10° NNW visible
23 Oct 3.1 19:20:43 10° SSE 19:25:48 81° WSW 19:30:56 10° NNW visible
23 Oct 6.2 21:03:50 10° WSW 21:05:39 12° W 21:07:29 10° WNW visible
24 Oct 3.2 18:44:11 10° SE 18:49:05 51° ENE 18:54:02 10° N visible
24 Oct 5.3 20:24:18 10° SW 20:28:24 24° W 20:32:32 10° NW visible
25 Oct 6.3 06:50:45 10° ENE 06:53:06 13° E 06:55:27 10° ESE visible
25 Oct 4.0 19:46:28 10° S 19:51:22 49° W 19:56:19 10° NNW visible
